COSMOS 252 DEB, 19479

Orbit data source: Space-Track

COSMOS 252 DEB, 19479 is space debris in LEO originally from a launch on Fri, 01 Nov 1968 UTC launched from the Tyuratam Missile And Space Complex (TTMTR). Debris objects in space refer to the collection of defunct objects orbiting the Earth. Examples of debris include non-operational satellites, rocket bodies, and fragments generated from explosions, collisions, or faulty payload assembly.

Loading next visibility...
Identifier
19479, 1968-097ET
Orbit
LEO
Country
Flag of CISCIS
Related business
Manufacturer
Unknown
Mission
Spacecraft
Bus & Motor
Unknown
Mass
Unknown
Launch date (UTC)
1968-11-01 (57 years ago)
Launch vehicle
Unknown
Launch site
Tyuratam Missile And Space Complex (TTMTR)
Object type
Payload
Rocket body
Debris
Shape & HBR
Unknown shape, 0.1 m
Radar Cross Section
Small (<0.1 m²)

Expand to show TLE details & history
Last TLE update: 15 hours ago

TLE from 15 hours ago
0 COSMOS 252 DEB
1 19479U 68097ET  25289.13369911  .00003411  00000-0  64625-3 0  9994
2 19479  62.7922  70.2461 0577546  47.1024 317.7032 13.93998743858316
Epoch: 2025-10-16T03:12Z
TLE epoch observation values (Epoch: 2025-10-16T03:12:31.603Z)
Latitude
-0.00002°
Longitude
-2.78338°
Altitude
616.583 km
Speed
7.705 km/s
True Right ascension
04h 40m 59s
True Declination
0° 00' 00"
Sunlit
Object was in full shadow at epoch
Visualization orbit readout
Latitude
Unknown
Longitude
Unknown
Altitude
Unknown
Speed
Unknown
Apparent Right ascension
Unknown
Apparent Declination
Unknown
Sunlit
N/A
Visualization observer readout
Local Sidereal Time
12:57:14
Azimuth
Unknown
Elevation
Unknown
Doppler factor
Unknown
Orbital elements
Apogee altitude
1,334.651 km
Perigee altitude
492.397 km
Semi-major axis
7,291.661 km
Eccentricity
0.05775
Inclination
62.7922°
RAAN
70.2461°
Arg. of periapsis
47.1024°
True anomaly
313.00402°
Mean anomaly
317.7032°
Eccentric anomaly
315.37884°
Mean motion
3.48581 °/min
Orbital period
103.28 mins
BSTAR
0.00064625
Loading maneuver chart data...
Computing Atmospheric mass density...

Documentation

Showing up to 5 results
|